[[{"header":{"parameterUnit":"m.s-1","parameterCategory":1,"la1":30.2991,"la2":30.254,"lo1":-89.0895,"lo2":-89.0444,"dy":0.0017,"dx":0.0017,"nx":28,"ny":28,"refTime":"2024-10-18T21:00:00:Z","depth":0,"parameterNumber":2,"parameterNumberName":"U-component_of_WINDS"},"data":[0,0,0,0,0,0,0,0,0,0,0,0,0,0,0,0,0,0,0,0,0,0,0,0,0,0,0,0,0,0,0,0,0,0,0,0,0,0,0,0,0,0,0,0,0,0,0,0,0,0,0,0,0,0,0,0,0,0,-2.8696,-2.8696,0,-2.8658,-2.8657,-2.8657,-2.856,-2.8558,-2.8556,-2.8554,-2.8517,-2.8518,-2.8519,0,0,0,0,0,0,0,0,0,0,0,0,0,-2.869,-2.8691,-2.8696,-2.8696,-2.8695,-2.8658,-2.8657,-2.8657,-2.856,-2.8558,-2.8555,-2.8553,-2.8516,-2.8518,-2.8519,0,0,0,0,0,0,0,0,0,0,0,0,0,-2.8677,-2.8691,-2.8697,-2.8643,-2.8637,-2.8658,-2.8657,-2.8656,-2.8561,-2.8557,-2.8554,-2.8552,-2.8516,-2.8517,-2.8519,-2.8589,0,0,-2.8523,-2.8524,0,0,0,0,0,0,0,0,-2.8678,-2.8677,-2.8651,-2.8646,-2.8641,-2.861,-2.8641,-2.8634,-2.8561,-2.859,-2.8554,-2.855,-2.8551,-2.8549,-2.8548,-2.8587,-2.8586,-2.8523,-2.8524,-2.8525,-2.8525,0,0,0,0,0,0,0,-2.8679,-2.8678,-2.8681,-2.8651,-2.8644,-2.8622,-2.8616,-2.864,-2.8588,-2.8587,-2.858,-2.8577,-2.8547,-2.8547,-2.8547,-2.8585,-2.8523,-2.8524,-2.8525,-2.8526,-2.8683,-2.8686,0,0,0,0,0,0,-2.8687,-2.868,-2.8682,-2.868,-2.8652,-2.8624,-2.8618,-2.8623,-2.8587,-2.8579,-2.8579,-2.8572,-2.8546,-2.8545,-2.8545,-2.8627,-2.8525,-2.8526,-2.8527,-2.8679,-2.8683,-2.8687,0,0,0,0,0,0,-2.8687,-2.8688,-2.8684,-2.8678,-2.8675,-2.8628,-2.8634,-2.8624,-2.8624,-2.8581,-2.8572,-2.8589,-2.8544,-2.8543,-2.8579,-2.8624,-2.8527,-2.8528,-2.8676,-2.8681,-2.8685,-2.8791,0,0,0,0,0,0,-2.8687,-2.8689,-2.8714,-2.8679,-2.8676,-2.8718,-2.8637,-2.8625,-2.8626,-2.8617,-2.8588,-2.858,-2.8542,-2.8578,-2.8581,-2.8625,-2.8529,-2.8671,-2.8678,-2.8684,-2.8783,-2.8799,-2.8812,0,0,0,0,0,-2.8688,-2.8745,-2.8716,-2.8717,-2.8707,-2.872,-2.8719,-2.8672,-2.863,-2.8656,-2.8629,-2.8581,-2.8619,-2.8582,-2.8585,-2.863,-2.8668,-2.8676,-2.8683,-2.8776,-2.8795,-2.8812,0,0,0,0,0,0,-2.8787,-2.874,-2.8706,-2.8754,-2.8742,-2.8704,-2.8735,-2.8694,-2.8694,-2.8685,-2.8628,-2.8623,-2.8667,-2.8652,-2.8612,-2.8697,-2.8636,-2.8644,-2.8706,-2.8724,-2.8738,-2.8741,-2.853,0,0,0,0,0,-2.8815,-2.8829,-2.8787,-2.8833,-2.8829,-2.8783,-2.8788,-2.8753,-2.8738,-2.8733,-2.8708,-2.8697,-2.8707,-2.8714,-2.872,-2.878,-2.8774,-2.8812,-2.8827,-2.8839,-2.8847,-2.888,-2.8898,-2.8712,-2.8712,-2.8711,0,0,-2.8872,-2.8847,-2.886,-2.8853,-2.8839,-2.8857,-2.878,-2.8801,-2.8814,-2.8736,-2.8769,-2.8751,-2.8735,-2.8784,-2.8804,-2.8773,-2.8897,-2.8848,-2.8858,-2.886,-2.889,-2.8908,-2.8923,-2.8717,-2.8716,-2.8715,0,0,-2.8985,-2.8967,-2.9005,-2.8993,-2.8974,-2.8943,-2.8953,-2.8921,-2.8906,-2.8938,-2.8881,-2.8896,-2.8913,-2.8904,-2.8902,-2.9014,-2.8971,-2.9018,-2.9095,-2.9127,-2.9142,-2.9155,-2.9197,-2.9213,-2.9026,-2.9026,-2.9027,0,-2.9058,-2.9081,-2.903,-2.9055,-2.9055,-2.8985,-2.9024,-2.9015,-2.8999,-2.9001,-2.8966,-2.8987,-2.8971,-2.9018,-2.9046,-2.9045,-2.9056,-2.9022,-2.9144,-2.9156,-2.9167,-2.9207,-2.9223,-2.9032,-2.9032,-2.9031,-2.9031,0,-2.9174,-2.9191,-2.9224,-2.9211,-2.9214,-2.9246,-2.92,-2.921,-2.9176,-2.915,-2.9185,-2.9163,-2.9165,-2.9173,-2.9139,-2.9216,-2.9198,-2.9154,-2.9091,-2.9192,-2.9229,-2.9243,-2.9041,-2.9039,-2.9037,-2.9036,0,0,-2.9349,-2.9307,-2.932,-2.9314,-2.9288,-2.9301,-2.9331,-2.9332,-2.9343,-2.9334,-2.936,-2.9376,-2.9336,-2.9334,-2.9299,-2.9328,-2.9421,-2.928,-2.9279,-2.9309,-2.9508,-2.9542,-2.956,-2.9392,-2.9394,-2.9396,-2.951,0,-2.9457,-2.9505,-2.946,-2.9517,-2.9534,-2.9469,-2.9495,-2.9483,-2.946,-2.9472,-2.9447,-2.9461,-2.9405,-2.9404,-2.9429,-2.9404,-2.946,-2.9395,-2.9417,-2.9418,-2.9425,-2.9579,-2.9615,-2.9723,-2.9523,-2.9526,-2.9527,0,-2.9589,-2.9587,-2.9647,-2.9619,-2.9624,-2.9649,-2.9647,-2.9659,-2.9645,-2.9626,-2.9625,-2.9582,-2.9612,-2.955,-2.9591,-2.9548,-2.9554,-2.9543,-2.9547,-2.9548,-2.948,-2.9587,-2.9756,-2.9773,-2.9549,-2.9547,-2.9546,0,-2.9713,-2.9725,-2.9763,-2.976,-2.9728,-2.9747,-2.9735,-2.9717,-2.9722,-2.9721,-2.9724,-2.9727,-2.9729,-2.9733,-2.9693,-2.9651,-2.9741,-2.9675,-2.9728,-2.9729,-2.9751,-2.975,-2.9925,-2.9752,-2.9752,-2.9751,-2.9751,0,-2.984,-2.9879,-2.9819,-2.9842,-2.9885,-2.9834,-2.9878,-2.9859,-2.9845,-2.9865,-2.9809,-2.9829,-2.9774,-2.9789,-2.9759,-2.9799,-2.98,-2.9787,-2.9779,-2.9793,-2.9795,-2.9798,-2.979,-2.9756,-2.9755,-2.9754,-2.9753,0,-2.9986,-2.9947,-2.9984,-2.9951,-2.9944,-2.9977,-2.995,-2.9971,-2.9945,-2.9971,-2.9974,-2.9933,-2.9948,-2.9909,-2.9918,-2.9897,-2.9956,-2.9935,-2.9961,-2.9955,-3.0012,-3.0008,-3.0196,-3.0219,-3.0029,-3.0031,-3.0033,0,-3.007,-3.0099,-3.0069,-3.0079,-3.0069,-3.0085,-3.0089,-3.004,-3.0047,-3.0035,-3.0058,-3.0068,-3.0074,-3.0102,-3.0074,-3.0081,-3.0061,-3.0126,-3.0062,-3.0076,-3.0065,-3.0064,-3.0068,-3.014,-3.0143,-3.0145,-3.0146,0,-3.0224,-3.0204,-3.0211,-3.0214,-3.0221,-3.022,-3.0215,-3.0226,-3.0174,-3.0186,-3.02,-3.0205,-3.0214,-3.0226,-3.0228,-3.0217,-3.0174,-3.0167,-3.018,-3.0196,-3.0211,-3.0206,-3.0,-3.0163,-3.0161,-3.016,-3.0159,-3.0158,-3.0343,-3.0367,-3.035,-3.0362,-3.0353,-3.0351,-3.037,-3.0346,-3.0357,-3.0361,-3.0332,-3.0354,-3.0341,-3.0338,-3.0332,-3.0349,-3.032,-3.0338,-3.0343,-3.0349,-3.036,-3.0207,-3.0349,-3.0349,-3.0348,-3.0348,-3.0347,0,-3.0496,-3.0483,-3.0494,-3.049,-3.0499,-3.0457,-3.045,-3.0462,-3.0481,-3.0473,-3.048,-3.0498,-3.051,-3.0483,-3.0492,-3.0511,-3.0492,-3.0515,-3.0514,-3.0513,-3.0384,-3.0373,-3.0531,-3.053,-3.053,-3.053,-3.053,-3.053,-3.0577,-3.0616,-3.0594,-3.0629,-3.0615,-3.0635,-3.0635,-3.0634,-3.0627,-3.065,-3.0659,-3.0641,-3.0627,-3.0633,-3.0643,-3.0635,-3.0642,-3.0673,-3.0658,-3.0539,-3.0521,-3.0505,-3.0494,-3.0674,-3.0674,-3.0785,-3.0787,-3.0787]},{"header":{"parameterUnit":"m.s-1","parameterCategory":1,"la1":30.2991,"la2":30.254,"lo1":-89.0895,"lo2":-89.0444,"dy":0.0017,"dx":0.0017,"nx":28,"ny":28,"refTime":"2024-10-18T21:00:00:Z","depth":0,"parameterNumber":3,"parameterNumberName":"V-component_of_WINDS"},"data":[0,0,0,0,0,0,0,0,0,0,0,0,0,0,0,0,0,0,0,0,0,0,0,0,0,0,0,0,0,0,0,0,0,0,0,0,0,0,0,0,0,0,0,0,0,0,0,0,0,0,0,0,0,0,0,0,0,0,-1.4341,-1.4342,0,-1.4396,-1.4397,-1.4397,-1.4395,-1.4394,-1.4394,-1.4393,-1.4449,-1.4451,-1.4453,0,0,0,0,0,0,0,0,0,0,0,0,0,-1.4234,-1.4236,-1.4341,-1.4342,-1.4343,-1.4396,-1.4397,-1.4398,-1.4395,-1.4394,-1.4393,-1.4392,-1.4448,-1.4451,-1.4454,0,0,0,0,0,0,0,0,0,0,0,0,0,-1.4284,-1.4236,-1.4341,-1.4348,-1.4349,-1.4396,-1.4397,-1.4398,-1.4395,-1.4394,-1.4393,-1.4392,-1.4447,-1.4451,-1.4454,-1.4498,0,0,-1.4464,-1.4466,0,0,0,0,0,0,0,0,-1.4281,-1.4288,-1.4346,-1.4347,-1.4349,-1.4388,-1.438,-1.4431,-1.4396,-1.4378,-1.4393,-1.4391,-1.443,-1.4434,-1.4447,-1.45,-1.4503,-1.4464,-1.4466,-1.4468,-1.4469,0,0,0,0,0,0,0,-1.4277,-1.4285,-1.4363,-1.4347,-1.4349,-1.4348,-1.4354,-1.4389,-1.441,-1.4379,-1.4379,-1.4386,-1.443,-1.4444,-1.4448,-1.4504,-1.4464,-1.4467,-1.4469,-1.4471,-1.4596,-1.4598,0,0,0,0,0,0,-1.4273,-1.4282,-1.4361,-1.4365,-1.4311,-1.4351,-1.4357,-1.4376,-1.4409,-1.4413,-1.4387,-1.4385,-1.4439,-1.4445,-1.445,-1.4505,-1.4468,-1.4471,-1.4473,-1.4595,-1.4597,-1.4598,0,0,0,0,0,0,-1.427,-1.428,-1.4359,-1.4324,-1.4334,-1.4354,-1.4375,-1.4378,-1.4392,-1.4415,-1.4418,-1.4397,-1.4438,-1.4446,-1.4486,-1.4507,-1.4472,-1.4475,-1.4593,-1.4596,-1.4597,-1.4614,0,0,0,0,0,0,-1.4267,-1.4279,-1.4296,-1.4324,-1.4336,-1.4394,-1.4376,-1.438,-1.4398,-1.4397,-1.4426,-1.4429,-1.4438,-1.4481,-1.449,-1.4511,-1.4478,-1.4592,-1.4594,-1.4597,-1.4612,-1.4617,-1.4621,0,0,0,0,0,-1.4263,-1.4298,-1.4297,-1.4306,-1.4357,-1.4395,-1.4402,-1.4411,-1.4399,-1.4417,-1.4431,-1.4428,-1.4503,-1.4485,-1.4495,-1.4518,-1.4591,-1.4594,-1.4597,-1.461,-1.4616,-1.4621,0,0,0,0,0,0,-1.4272,-1.4302,-1.4301,-1.4346,-1.4368,-1.4395,-1.4417,-1.4417,-1.4443,-1.4441,-1.445,-1.4457,-1.4498,-1.4511,-1.4491,-1.4562,-1.4545,-1.455,-1.4552,-1.4558,-1.4562,-1.4559,-1.4481,0,0,0,0,0,-1.4279,-1.4308,-1.4332,-1.4369,-1.4381,-1.4397,-1.4414,-1.4419,-1.4442,-1.4452,-1.4469,-1.4492,-1.4521,-1.454,-1.4567,-1.4613,-1.462,-1.4633,-1.4637,-1.4641,-1.4646,-1.4672,-1.4679,-1.4608,-1.4608,-1.4608,0,0,-1.4294,-1.4314,-1.4332,-1.4372,-1.439,-1.4419,-1.4405,-1.4437,-1.4459,-1.4457,-1.4497,-1.451,-1.4536,-1.458,-1.46,-1.4592,-1.4666,-1.4645,-1.4647,-1.4651,-1.4676,-1.4683,-1.4689,-1.461,-1.461,-1.4609,0,0,-1.4338,-1.4355,-1.4389,-1.4407,-1.4434,-1.4444,-1.4452,-1.4479,-1.4488,-1.4528,-1.4527,-1.4553,-1.4602,-1.4621,-1.4637,-1.4687,-1.4686,-1.4695,-1.4719,-1.4744,-1.475,-1.4755,-1.4775,-1.4781,-1.47,-1.47,-1.47,0,-1.4354,-1.4399,-1.4406,-1.4439,-1.4457,-1.4455,-1.449,-1.4506,-1.4541,-1.4554,-1.4544,-1.4606,-1.4623,-1.4672,-1.4684,-1.4696,-1.4706,-1.4693,-1.4749,-1.4754,-1.4759,-1.4777,-1.4784,-1.4701,-1.4701,-1.4701,-1.47,0,-1.4417,-1.4448,-1.4472,-1.4506,-1.4526,-1.4559,-1.4572,-1.4591,-1.4594,-1.4605,-1.4646,-1.4667,-1.4699,-1.471,-1.4713,-1.476,-1.4754,-1.4746,-1.473,-1.4766,-1.4784,-1.4791,-1.4703,-1.4702,-1.4702,-1.4701,0,0,-1.447,-1.4507,-1.4516,-1.4532,-1.4561,-1.4585,-1.4618,-1.4649,-1.4667,-1.469,-1.4718,-1.4759,-1.4752,-1.477,-1.4775,-1.4797,-1.4837,-1.4787,-1.4788,-1.4797,-1.4892,-1.4899,-1.4907,-1.4835,-1.4837,-1.4838,-1.489,0,-1.4518,-1.4577,-1.4585,-1.4637,-1.4666,-1.4665,-1.4693,-1.4714,-1.4726,-1.4752,-1.4763,-1.4793,-1.4781,-1.4792,-1.4814,-1.4828,-1.4857,-1.4824,-1.4863,-1.4865,-1.486,-1.4916,-1.4925,-1.4973,-1.4897,-1.4898,-1.4899,0,-1.4583,-1.4609,-1.4664,-1.469,-1.4703,-1.4728,-1.4758,-1.4783,-1.4806,-1.4813,-1.4833,-1.4834,-1.4869,-1.4849,-1.4896,-1.4874,-1.489,-1.4899,-1.4901,-1.4908,-1.4886,-1.4926,-1.4989,-1.4997,-1.491,-1.4909,-1.4908,0,-1.4619,-1.4667,-1.4707,-1.472,-1.475,-1.4769,-1.4782,-1.4805,-1.4823,-1.4848,-1.4861,-1.4889,-1.4906,-1.4928,-1.4937,-1.4922,-1.4985,-1.4966,-1.4992,-1.4992,-1.5008,-1.5008,-1.5077,-1.5014,-1.5014,-1.5014,-1.5014,0,-1.4674,-1.4708,-1.4723,-1.4748,-1.4787,-1.4794,-1.4832,-1.4845,-1.4865,-1.4892,-1.4891,-1.4917,-1.4926,-1.4953,-1.496,-1.5,-1.5006,-1.5013,-1.5015,-1.5015,-1.5015,-1.5028,-1.5026,-1.5016,-1.5015,-1.5015,-1.5015,0,-1.4721,-1.4733,-1.4776,-1.4801,-1.4808,-1.4836,-1.4857,-1.4881,-1.4891,-1.4926,-1.4934,-1.495,-1.4982,-1.4993,-1.5031,-1.5036,-1.5082,-1.508,-1.5075,-1.5076,-1.5103,-1.5101,-1.5185,-1.5197,-1.5124,-1.5125,-1.5125,0,-1.4757,-1.4784,-1.4811,-1.483,-1.4844,-1.4873,-1.4892,-1.49,-1.492,-1.4948,-1.4969,-1.5,-1.5026,-1.5077,-1.5092,-1.5122,-1.5122,-1.5149,-1.5126,-1.5126,-1.5125,-1.5125,-1.5128,-1.5154,-1.5155,-1.5156,-1.5156,0,-1.482,-1.4824,-1.4851,-1.4881,-1.4903,-1.4927,-1.4949,-1.4964,-1.4975,-1.4997,-1.503,-1.505,-1.5089,-1.5121,-1.5151,-1.5165,-1.5163,-1.5162,-1.5171,-1.5172,-1.5169,-1.5173,-1.5089,-1.5161,-1.5161,-1.516,-1.516,-1.516,-1.4864,-1.4888,-1.4912,-1.4943,-1.496,-1.4981,-1.5005,-1.5018,-1.5046,-1.5079,-1.5081,-1.5116,-1.5139,-1.5179,-1.5194,-1.5222,-1.5215,-1.5226,-1.5229,-1.5233,-1.5236,-1.5162,-1.5227,-1.5227,-1.5227,-1.5227,-1.5227,0,-1.4929,-1.4944,-1.4972,-1.5004,-1.5028,-1.5023,-1.5047,-1.5068,-1.5099,-1.5121,-1.5146,-1.5184,-1.5214,-1.5231,-1.5262,-1.5281,-1.5281,-1.5289,-1.5289,-1.5293,-1.524,-1.5231,-1.5289,-1.5289,-1.5289,-1.5289,-1.5288,-1.5288,-1.4966,-1.5007,-1.5014,-1.5063,-1.5077,-1.5113,-1.5127,-1.5147,-1.5164,-1.5206,-1.5232,-1.5242,-1.5262,-1.5294,-1.5322,-1.5326,-1.5338,-1.5348,-1.5351,-1.5302,-1.5296,-1.529,-1.5282,-1.535,-1.535,-1.5402,-1.5403,-1.5403]}]]